Regional Weather Roundup
Issued by NWS

Home | Current Version | Previous Version | Graphics & Text | Print | Product List | Glossary On
Versions: 1 2 3 4 5 6 7 8 9 10 11 12 13 14 15 16 17 18 19 20 21 22 23 24 25 26 27 28 29 30 31 32 33 34 35 36 37 38 39 40 41 42 43 44 45 46 47 48 49 50
000
ASUS45 KSLC 131510
RWRUT

UTAH REGIONAL WEATHER ROUNDUP
NATIONAL WEATHER SERVICE SALT LAKE CITY UT
800 AM MST SAT FEB 13 2016

UTZ001>011-023>025-131600-

NORTHERN UTAH

CITY           SKY/WX    TMP DP  RH WIND       PRES   REMARKS
BRIGHAM CITY   CLOUDY    26  24  92 CALM      30.33R VSB 1
HILL AFB       CLOUDY    27  25  93 SE2       30.29S FOG
LOGAN          FOG       22  22 100 CALM      30.29R VSB 1/4
OGDEN          FOG       30  26  85 CALM      30.29S VSB<1/4
PROVO AIRPORT  FOG       21  19  93 CALM      30.32R VSB 1/4
SALT LAKE CITY FOG       29  27  92 N5        30.31R VSB 1   WCI  24
VERNAL         CLOUDY    20  17  88 CALM      30.26S FOG
WENDOVER       CLOUDY    28  25  86 CALM      30.31R
HEBER CITY     MOCLDY    16  14  93 E8        30.25R FOG     WCI   5
WEST JORDAN    CLOUDY    28  28 100 CALM      30.30R

$$

UTZ012>022-026-027-131600-

SOUTHERN/CENTRAL UTAH

CITY           SKY/WX    TMP DP  RH WIND       PRES   REMARKS
BLANDING       PTCLDY    29  22  75 N5        30.37S WCI  24
BRYCE CANYON   PTCLDY    17   7  64 NW3       30.33R
CEDAR CITY     PTCLDY    24  16  71 E3        30.26R
DELTA          CLOUDY    11  10  92 NE3       30.31S
HANKSVILLE     CLOUDY    30  28  93 CALM      30.32R
MILFORD        CLOUDY     8   5  87 S8        30.27S FOG     WCI  -4
MOAB/CYNLANDS  CLOUDY    30  28  92 CALM      30.28R
PRICE          PTCLDY    26  21  81 N3        30.27S
ST GEORGE      PTSUNNY   37  23  56 CALM      30.26R
KANAB          CLEAR     32  28  86 NE6       30.30R WCI  26

$$

REGIONAL REPORTS     COLORADO/ARIZONA

CITY           SKY/WX    TMP DP  RH WIND       PRES   REMARKS
CRAIG, CO      CLOUDY     9   7  92 SW5       30.26R WCI   1
GRAND JUNCTION CLOUDY    26  24  92 CALM      30.29R
RIFLE          CLOUDY    20  15  81 CALM      30.31R
MONTROSE       CLOUDY    26  20  77 S7        30.31S WCI  18
CORTEZ         CLOUDY    25  19  78 NE7       30.31S WCI  17
PAGE, AZ       CLEAR     37  30  75 SW3       30.28R
GRAND CANYON   CLEAR     25  20  81 E3        30.31S
KINGMAN        CLEAR     35  23  61 CALM      30.18S
FLAGSTAFF      CLEAR     26  20  77 CALM      30.32S

$$

REGIONAL REPORTS    NEVADA/IDAHO/WYOMING

CITY           SKY/WX    TMP DP  RH WIND       PRES   REMARKS
LAS VEGAS, NV  PTCLDY    48  24  39 S5        30.14R
ELY            CLOUDY    22  14  71 S17       30.30R WCI   8
ELKO           MOCLDY    13  10  88 SW5       30.31R WCI   5
POCATELLO, ID  CLOUDY    36  24  62 S17G24    30.17S WCI  26
BURLEY         MOCLDY    36  29  75 SW12      30.21R WCI  28
EVANSTON, WY   CLOUDY    30  12  47 SW8       30.23R WCI  22
ROCK SPRINGS   CLOUDY    33  17  51 W12       30.19R WCI  24

$$



USA.gov is the U.S. government's official web portal to all federal, state and local government web resources and services.